Showing default

HAWK-10A, 60540

Orbit data source: Space-Track

HAWK-10A, 60540 is a payload satellite owned by HawkEye 360 (US) in SSO that was launched on Fri, 16 Aug 2024 UTC via an FALCON 9 launch vehicle from the Air Force Western Test Range (AFWTR). Payload-class satellites include a variety of spacecraft equipped with specific instruments for various scientific and technological missions. These include communications satellites like Starlink; space stations such as the ISS; scientific satellites like the Hubble; Earth observation satellites from companies like Planet Labs, Umbra, and HawkEye 360; GPS; miniature CubeSats for education and research; and military/defense satellites.

Loading next visibility...
Identifier
60540, 2024-149CA
Orbit
SSO
Country
Flag of USUS
Related business
Manufacturer
UTIAS-SFL
Mission
Operational Commercial Sigint
Bus & Motor
HAWK2G, Unknown motor
Mass
31 kg wet, 30 kg dry
Launch date (UTC)
2024-08-16 (2 years ago)
Launch vehicle
FALCON 9
Launch site
Air Force Western Test Range (AFWTR)
Object type
Payload
Rocket body
Debris
Shape & HBR
Box + 2 Pan, 1.0 m
Radar Cross Section
0.240 m², Medium (>0.1 m² and < 1m²)

Expand to show TLE details & history
Last TLE update: 15 hours ago

TLE from 15 hours ago
0 HAWK-10A
1 60540U 24149CA  26256.08858669  .00001586  00000-0  14380-3 0  9995
2 60540  97.6828 330.4706 0004761 124.4356 235.7316 14.96724385113138
Epoch: 2026-09-13T02:07Z
TLE epoch observation values (Epoch: 2026-09-13T02:07:33.890Z)
Latitude
-0.00001°
Longitude
-53.50886°
Altitude
581.942 km
Speed
7.568 km/s
True Right ascension
22h 01m 52s
True Declination
0° 00' 00"
Sunlit
Object was in full shadow at epoch
Visualization orbit readout
Latitude
Unknown
Longitude
Unknown
Altitude
Unknown
Speed
Unknown
Apparent Right ascension
Unknown
Apparent Declination
Unknown
Sunlit
N/A
Visualization observer readout
Local Sidereal Time
09:57:20
Azimuth
Unknown
Elevation
Unknown
Doppler factor
Unknown
Orbital elements
Apogee altitude
577.344 km
Perigee altitude
570.725 km
Semi-major axis
6,952.171 km
Eccentricity
0.00048
Inclination
97.6828°
RAAN
330.4706°
Arg. of periapsis
124.4356°
True anomaly
235.68653°
Mean anomaly
235.7316°
Eccentric anomaly
235.70906°
Mean motion
3.74423 °/min
Orbital period
96.15 mins
BSTAR
0.0001438
Loading maneuver chart data...
Computing Atmospheric mass density...
Loading historical data...
Loading historical data...
Loading historical data...
Loading historical data...
Loading historical data...
Loading historical data...
Loading historical data...

Documentation

Showing up to 5 results
|